Regional Weather Roundup
Issued by NWS Newport/Morehead, NC

Current Version | Previous Version | Text Only | Print | Product List | Glossary Off
Versions: 1 2 3 4 5 6 7 8 9 10 11 12 13 14 15 16 17 18 19 20 21 22 23 24 25 26 27 28 29 30 31 32 33 34 35 36 37 38 39 40 41 42 43 44 45 46 47 48 49 50
031 ASUS42 KMHX 251213 RWRMHX WEATHER ROUNDUP FOR EASTERN NORTH CAROLINA NATIONAL WEATHER SERVICE NEWPORT/MOREHEAD CITY NC 800 AM EDT MON SEP 25 2017 NOTE: "FAIR" INDICATES FEW OR NO CLOUDS BELOW 12,000 FEET WITH NO SIGNIFICANT WEATHER AND/OR OBSTRUCTIONS TO VISIBILITY NCZ015>017-031-032-045>047-102-103-251300- NORTH COAST CITY SKY/WX TMP DP RH WIND PRES REMARKS EDENTON MOSUNNY 69 67 94 CALM 29.97S ELIZABETH CITY MOSUNNY 73 70 90 NE13 29.97S KITTY HAWK CLOUDY 70 66 88 NE10G20 29.94S MANTEO CLOUDY 72 69 88 NE15G22 29.95S $$ NCZ045>047-081-094-103-104-251300- CENTRAL COAST CITY SKY/WX TMP DP RH WIND PRES REMARKS FRISCO CLOUDY 74 72 93 NE9G22 29.91R $$ NCZ095-097-098-100-101-251300- SOUTHERN COAST CITY SKY/WX TMP DP RH WIND PRES REMARKS BEAUFORT CLOUDY 74 72 93 N15 29.89S CEDAR ISLAND NOT AVBL JACKSONVILLE CLOUDY 72 69 90 NE9 29.91S PINEY ISLAND FLURRIES N/A N/A N/A NE17G24 29.91R WILMINGTON CLOUDY 71 68 90 N12 29.92R $$ NCZ011>013-027>030-043-044-078>080-089-090>093-098-251300- COASTAL PLAIN CITY SKY/WX TMP DP RH WIND PRES REMARKS AHOSKIE CLOUDY 64 64 100 N6 29.99S CLINTON MOSUNNY 66 65 97 NE3 29.97R ELIZABETHTOWN NOT AVBL GOLDSBORO PTSUNNY 67 67 100 N7 29.95R GREENVILLE CLOUDY 66 66 100 N5 29.99R HAVELOCK CLOUDY 73 70 90 NE13 29.92S KENANSVILLE CLOUDY 66 64 94 N6 29.95R KINSTON CLOUDY 68 66 94 N8 29.96S NEW BERN CLOUDY 72 69 90 NE10 29.94S RICHLANDS CLOUDY 69 67 93 N9 29.93S ROCKY MOUNT CLOUDY 66 66 100 N9 29.99R WASHINGTON CLOUDY 69 67 94 N6 29.96S WHITEVILLE CLOUDY 68 65 91 CALM 29.94R $$ AMZ130-135-150-152-154-156-158-170-250-252-270-ANZ085-086-088-633-658-670-251300- MARINE OBSERVATIONS STATION/POSITION TIME TEMP WIND PRES WAVE SWELL AIR SEA DIR/SP/G HT/PER HT/PER (UTC) (F) (DEG/KT/KT) (MB) (FT/S) (FT/S) CHESAPEAKE LIGHT NOT AVBL 64 E VA BEACH 1150 71 70 50/ 16/ 17 1015.1 11/15 11/15 DUCK 1142 72 76 40/ 23/ 25 1014.0 2 E DUCK 1130 75 N/A 6/13 3/13 OREGON INLET 1142 73 76 30/ 14/ 20 1013.4 13E OREGON INLT 1148 75 N/A 9/15 10/15 HATTERAS CG 1142 74 77 40/ 14/ 20 1012.6 DIAMOND BUOY 1150 75 76 30/ 21/ 27 1011.2 11/15 10/15 CAPE LOOKOUT 1200 75 30/ 23/ 26 1011.8 BEAUFORT LAB 1142 74 75 20/ 11/ 15 1011.8 30 SE NEW RVR IN 1108 76 40/ 21/ 27 1011.0 30 SE NEW RVR IN NOT AVBL 27 SE WRIGHTSVLE 1108 76 80 70/ 21/ 29 1010.8 5 SE WRIGHTSVLE 1108 74 78 40/ 14/ 23 1011.8 225 S CAPE HAT 1150 80 81 10/ 35/ 47 996.4 24/12 16/12 41 SE CHARLESTON 1150 77 80 10/ 16/ 19 1011.4 10/12 8/12 $$

USA.gov is the U.S. government's official web portal to all federal, state and local government web resources and services.